TimeEDT,TemperatureF,Dew PointF,Humidity,Sea Level PressureIn,VisibilityMPH,Wind Direction,Wind SpeedMPH,Gust SpeedMPH,PrecipitationIn,Events,Conditions,WindDirDegrees,DateUTC
12:15 AM,50.0,41.0,71,30.19,10.0,SSE,6.9,-,N/A,,Overcast,160,2013-10-30 04:15:00
12:35 AM,48.2,42.8,82,30.18,10.0,SE,5.8,-,N/A,Rain,Light Rain,140,2013-10-30 04:35:00
12:55 AM,46.4,42.8,87,30.18,10.0,SE,3.5,-,N/A,Rain,Light Rain,130,2013-10-30 04:55:00
1:15 AM,46.4,42.8,87,30.17,10.0,SE,4.6,-,0.01,Rain,Light Rain,140,2013-10-30 05:15:00
1:35 AM,46.4,42.8,87,30.17,10.0,SE,4.6,-,0.01,,Mostly Cloudy,140,2013-10-30 05:35:00
1:55 AM,46.4,42.8,87,30.16,10.0,SSE,4.6,-,0.01,,Light Drizzle,160,2013-10-30 05:55:00
2:15 AM,46.4,44.6,93,30.15,7.0,SSE,5.8,-,N/A,,Overcast,150,2013-10-30 06:15:00
2:35 AM,46.4,44.6,93,30.15,7.0,SSE,5.8,-,N/A,,Overcast,150,2013-10-30 06:35:00
2:55 AM,46.4,44.6,93,30.14,7.0,SSE,4.6,-,N/A,,Overcast,150,2013-10-30 06:55:00
3:15 AM,46.4,44.6,93,30.13,7.0,SSE,5.8,-,N/A,,Overcast,160,2013-10-30 07:15:00
3:35 AM,46.4,44.6,93,30.13,7.0,SSE,4.6,-,N/A,,Overcast,160,2013-10-30 07:35:00
3:55 AM,46.4,44.6,93,30.13,5.0,Calm,Calm,-,N/A,,Overcast,0,2013-10-30 07:55:00
4:15 AM,44.6,44.6,100,30.13,5.0,Calm,Calm,-,N/A,,Overcast,0,2013-10-30 08:15:00
4:35 AM,44.6,42.8,93,30.13,3.0,Calm,Calm,-,N/A,,Mostly Cloudy,0,2013-10-30 08:35:00
4:55 AM,44.6,44.6,100,30.14,4.0,East,3.5,-,N/A,,Overcast,100,2013-10-30 08:55:00
5:15 AM,46.4,44.6,93,30.14,3.0,East,3.5,-,N/A,,Overcast,80,2013-10-30 09:15:00
5:35 AM,46.4,46.4,100,30.13,4.0,East,3.5,-,N/A,,Overcast,80,2013-10-30 09:35:00
5:55 AM,46.4,44.6,93,30.14,4.0,East,3.5,-,N/A,,Overcast,100,2013-10-30 09:55:00
6:15 AM,46.4,44.6,93,30.14,4.0,East,3.5,-,N/A,,Overcast,90,2013-10-30 10:15:00
6:35 AM,46.4,44.6,93,30.13,4.0,East,4.6,-,N/A,,Overcast,90,2013-10-30 10:35:00
6:55 AM,46.4,46.4,100,30.13,4.0,East,4.6,-,N/A,,Overcast,90,2013-10-30 10:55:00
7:15 AM,46.4,46.4,100,30.13,3.0,East,4.6,-,N/A,,Overcast,90,2013-10-30 11:15:00
7:35 AM,46.4,46.4,100,30.13,3.0,East,5.8,-,N/A,,Overcast,80,2013-10-30 11:35:00
7:55 AM,48.2,46.4,93,30.12,3.0,ENE,4.6,-,N/A,,Overcast,70,2013-10-30 11:55:00
8:15 AM,48.2,46.4,93,30.13,4.0,Calm,Calm,-,N/A,,Overcast,0,2013-10-30 12:15:00
8:35 AM,46.4,46.4,100,30.14,3.0,East,4.6,-,N/A,,Overcast,90,2013-10-30 12:35:00
8:55 AM,48.2,46.4,93,30.14,3.0,East,4.6,-,N/A,,Overcast,80,2013-10-30 12:55:00
9:15 AM,48.2,46.4,93,30.14,3.0,East,6.9,-,N/A,,Overcast,80,2013-10-30 13:15:00
9:35 AM,48.2,46.4,93,30.14,2.5,East,5.8,-,N/A,,Overcast,80,2013-10-30 13:35:00
9:55 AM,50.0,46.4,87,30.14,2.5,East,6.9,-,N/A,,Overcast,80,2013-10-30 13:55:00
10:15 AM,50.0,48.2,94,30.14,2.5,East,6.9,-,N/A,,Overcast,90,2013-10-30 14:15:00
10:35 AM,50.0,48.2,94,30.14,3.0,East,8.1,-,N/A,,Overcast,100,2013-10-30 14:35:00
10:55 AM,51.8,50.0,94,30.15,3.0,ESE,5.8,-,N/A,,Overcast,120,2013-10-30 14:55:00
11:15 AM,51.8,50.0,94,30.15,3.0,ESE,5.8,-,N/A,,Overcast,110,2013-10-30 15:15:00
11:35 AM,51.8,51.8,100,30.14,3.0,ESE,8.1,-,N/A,,Overcast,120,2013-10-30 15:35:00
11:55 AM,53.6,51.8,94,30.14,3.0,SE,5.8,-,N/A,,Overcast,140,2013-10-30 15:55:00
12:15 PM,53.6,51.8,94,30.13,3.0,SE,6.9,-,N/A,,Overcast,130,2013-10-30 16:15:00
12:35 PM,55.4,53.6,94,30.12,4.0,SE,8.1,-,N/A,,Overcast,130,2013-10-30 16:35:00
12:55 PM,55.4,53.6,94,30.11,4.0,SE,6.9,-,N/A,,Overcast,140,2013-10-30 16:55:00
1:15 PM,57.2,53.6,88,30.09,5.0,ESE,8.1,-,N/A,,Overcast,120,2013-10-30 17:15:00
1:35 PM,57.2,53.6,88,30.08,5.0,SE,8.1,-,N/A,,Overcast,130,2013-10-30 17:35:00
1:55 PM,57.2,53.6,88,30.08,7.0,SE,8.1,-,N/A,,Overcast,130,2013-10-30 17:55:00
2:15 PM,59.0,55.4,88,30.06,7.0,SE,9.2,-,N/A,,Overcast,130,2013-10-30 18:15:00
2:35 PM,59.0,55.4,88,30.07,7.0,SE,8.1,-,N/A,,Overcast,140,2013-10-30 18:35:00
2:55 PM,59.0,55.4,88,30.06,5.0,SE,11.5,-,N/A,,Overcast,140,2013-10-30 18:55:00
3:15 PM,59.0,55.4,88,30.06,5.0,SSE,8.1,-,N/A,,Overcast,150,2013-10-30 19:15:00
3:35 PM,59.0,55.4,88,30.05,5.0,SSE,9.2,-,N/A,,Overcast,150,2013-10-30 19:35:00
3:55 PM,59.0,55.4,88,30.03,7.0,SE,9.2,-,N/A,,Overcast,130,2013-10-30 19:55:00
4:15 PM,59.0,55.4,88,30.02,7.0,SE,10.4,-,N/A,,Overcast,130,2013-10-30 20:15:00
4:35 PM,59.0,55.4,88,30.03,7.0,SE,10.4,-,N/A,,Overcast,140,2013-10-30 20:35:00
4:55 PM,59.0,55.4,88,30.01,5.0,SE,11.5,-,N/A,,Overcast,130,2013-10-30 20:55:00
5:15 PM,59.0,57.2,94,30.01,5.0,SE,10.4,-,N/A,,Overcast,130,2013-10-30 21:15:00
5:35 PM,60.8,57.2,88,30.01,5.0,SE,9.2,-,N/A,,Overcast,140,2013-10-30 21:35:00
5:55 PM,59.0,57.2,94,30.00,5.0,SE,9.2,-,N/A,,Overcast,140,2013-10-30 21:55:00
6:15 PM,59.0,57.2,94,30.01,4.0,SE,8.1,-,N/A,,Overcast,130,2013-10-30 22:15:00
6:35 PM,59.0,57.2,94,29.99,3.0,SE,8.1,-,N/A,,Overcast,140,2013-10-30 22:35:00
6:55 PM,59.0,57.2,94,30.01,4.0,SE,6.9,-,N/A,,Overcast,140,2013-10-30 22:55:00
7:15 PM,59.0,57.2,94,30.01,4.0,SE,8.1,-,N/A,,Overcast,140,2013-10-30 23:15:00
8:55 PM,59.0,59.0,100,29.96,1.8,SE,8.1,-,0.01,,Overcast,140,2013-10-31 00:55:00
9:15 PM,60.8,59.0,94,29.95,2.0,SSE,9.2,-,N/A,,Overcast,160,2013-10-31 01:15:00
9:35 PM,60.8,60.8,100,29.94,2.5,South,9.2,-,N/A,,Overcast,170,2013-10-31 01:35:00
9:55 PM,60.8,60.8,100,29.94,3.0,South,9.2,-,0.01,Rain,Light Rain,170,2013-10-31 01:55:00
10:15 PM,62.6,60.8,94,29.93,3.0,South,10.4,-,N/A,,Overcast,180,2013-10-31 02:15:00
10:35 PM,62.6,60.8,94,29.93,4.0,South,9.2,-,N/A,Rain,Light Rain,180,2013-10-31 02:35:00
10:55 PM,62.6,60.8,94,29.94,5.0,South,12.7,-,N/A,Rain,Light Rain,190,2013-10-31 02:55:00
11:15 PM,62.6,60.8,94,29.94,5.0,South,16.1,-,0.01,Rain,Light Rain,190,2013-10-31 03:15:00
11:35 PM,62.6,60.8,94,29.92,5.0,South,12.7,-,0.01,,Overcast,190,2013-10-31 03:35:00
11:55 PM,62.6,60.8,94,29.91,7.0,South,12.7,-,0.01,,Overcast,180,2013-10-31 03:55:00